Dewpoint
13 12 11 10 9 10 12 14 14 13 12 12 13 12 12 10 9 10 10 10 11 11 9 7 5 6 8 9 9 10 11 10 9 9 8 5 1 -0 2 7 7 6
14 12 11 10 9 9 11 13 13 13 12 12 13 12 12 11 10 10 10 10 11 11 9 7 5 6 8 8 8 9 9 9 9 8 7 4 2 0 1 6 7 7
14 13 11 10 10 9 9 12 13 12 12 12 13 13 12 11 10 10 10 10 11 12 10 7 6 7 8 8 7 8 7 7 7 8 6 4 3 1 -0 3 6 8
14 13 12 11 10 9 9 11 12 12 12 12 12 13 12 12 11 11 10 10 11 12 12 9 7 7 8 8 7 7 6 5 5 6 6 4 4 3 -0 2 5 8
13 12 12 11 10 9 9 10 11 11 12 12 12 12 13 12 11 11 11 11 12 13 12 11 9 8 8 7 6 3 3 3 2 4 3 2 3 3 2 2 5 7
14 13 12 11 11 10 10 9 10 11 11 11 11 12 12 11 11 11 10 11 12 13 13 11 9 9 9 7 4 1 -1 -2 -2 0 1 -1 -0 2 2 3 5 6
14 13 13 12 11 11 10 9 10 10 11 11 11 11 12 11 10 10 10 11 12 12 13 11 10 10 10 9 6 2 -2 -4 -4 -3 -2 -3 -2 -1 1 2 3 5
14 14 14 13 12 11 10 10 10 10 11 11 11 11 11 11 10 9 10 11 12 13 13 11 10 10 11 11 9 5 1 -3 -5 -5 -5 -4 -3 -2 -1 0 3 4
14 14 15 14 13 11 10 10 9 10 10 11 10 10 11 11 10 9 9 10 12 12 12 12 11 11 12 12 12 10 6 1 -3 -5 -6 -5 -4 -2 -1 -0 2 4
14 14 15 14 13 11 10 9 9 10 10 10 10 10 11 11 10 9 9 10 11 12 12 12 12 11 12 13 13 12 11 8 4 -1 -5 -6 -5 -3 -2 -0 2 4
14 14 14 14 13 10 8 8 9 10 10 10 11 10 11 11 10 10 9 9 10 11 12 13 12 12 12 13 13 13 13 12 10 7 2 -2 -4 -4 -2 -1 1 3
15 14 14 13 12 9 7 7 9 10 10 10 10 10 11 11 10 10 9 8 9 10 12 12 13 13 13 13 13 14 14 14 13 12 9 4 -1 -5 -3 -1 0 3
15 14 12 11 10 7 6 6 8 9 9 9 10 10 11 11 11 10 9 8 9 9 10 12 13 13 13 14 14 14 14 14 14 13 12 10 4 -2 -3 -1 1 2
16 14 11 9 8 7 6 6 7 8 9 9 10 10 10 10 10 10 10 10 9 9 10 11 13 13 14 14 14 14 14 14 14 14 13 12 9 4 0 -0 1 3
16 15 12 10 9 8 8 7 7 8 9 10 10 10 10 10 10 11 11 11 11 11 11 12 12 13 13 13 13 14 14 14 14 14 14 14 12 9 4 1 1 3
16 15 14 12 10 9 8 7 7 8 10 11 11 10 10 10 11 12 12 12 12 11 11 12 12 12 11 12 12 13 14 15 15 15 14 14 13 11 8 4 3 2
16 16 15 13 11 9 8 8 8 9 10 11 11 11 11 12 13 13 13 13 12 11 11 11 11 11 11 11 12 14 15 15 15 15 15 15 14 13 10 7 6 4
16 16 15 14 13 11 9 9 10 11 11 12 12 12 12 13 14 14 14 14 13 12 12 11 10 11 11 12 14 15 15 16 16 16 16 15 15 14 12 10 8 6
16 16 16 14 13 12 11 12 13 13 13 13 13 13 14 14 15 15 14 14 14 13 12 12 12 12 13 14 15 16 16 16 16 17 16 16 15 15 13 12 9 7
16 16 16 14 13 13 13 14 14 13 14 15 15 15 15 15 15 14 14 14 13 13 13 13 14 15 15 16 16 17 17 17 17 17 16 16 15 15 14 13 11 9
15 16 15 15 14 14 15 15 15 15 16 16 16 16 16 15 14 14 14 13 13 14 14 15 16 16 16 17 17 18 18 18 17 17 17 16 16 15 14 14 12 10
15 15 15 15 15 15 16 15 15 16 16 17 17 17 16 15 15 14 14 14 15 15 16 17 17 17 17 18 18 18 17 17 17 17 17 16 16 16 15 13 12 11
15 15 15 15 15 15 15 15 15 16 16 17 17 17 16 16 15 15 15 16 16 16 17 17 17 17 18 18 18 17 17 17 17 17 17 16 16 16 15 13 13 12
15 15 15 15 15 15 15 15 15 15 16 15 15 15 15 15 16 16 16 17 17 17 17 17 18 18 18 18 18 17 16 16 16 16 16 16 16 15 14 14 13 13
15 15 15 15 15 15 15 16 15 15 15 14 15 15 16 16 17 17 17 17 17 17 17 18 18 18 18 18 17 16 15 15 16 16 16 16 16 15 14 14 13 13
15 15 15 15 15 15 15 15 15 15 15 15 16 16 17 17 17 18 18 17 17 17 18 18 18 18 17 17 16 14 14 15 16 16 16 16 16 15 14 14 13 13
Wind_Speed
41 39 37 35 35 34 33 32 31 30 28 28 27 26 24 22 22 22 20 18 16 14 15 16 16 17 18 19 19 18 17 16 15 13 13 14 17 21 22 21 21 20
43 40 38 37 36 35 34 33 32 30 29 29 28 26 25 23 23 22 21 19 17 16 16 16 17 18 20 21 21 20 19 18 17 16 14 14 16 19 21 23 23 22
44 42 40 39 38 37 36 35 33 31 30 30 29 27 26 25 24 23 22 21 19 18 17 17 18 20 21 21 21 21 20 19 18 17 15 14 16 19 21 22 25 25
45 44 42 40 39 38 36 36 35 33 32 31 30 28 27 26 26 25 24 23 22 20 19 18 18 20 22 21 22 22 22 21 20 18 17 15 16 19 21 23 25 27
43 44 43 41 40 39 38 37 37 35 34 33 31 29 28 27 27 27 26 26 24 22 20 20 20 20 22 22 22 23 23 22 21 20 19 17 17 19 21 23 26 28
41 43 44 43 41 40 40 39 38 37 35 34 32 31 30 29 28 28 28 27 26 24 22 22 22 21 22 23 24 23 23 22 21 21 21 19 18 19 21 24 26 28
40 41 43 43 42 41 41 40 40 38 37 36 34 32 31 30 30 30 29 28 27 26 25 24 24 24 23 24 25 25 24 23 22 22 22 21 21 21 22 24 26 28
39 40 42 43 43 42 42 42 41 40 39 38 36 35 33 32 32 31 30 29 28 27 27 27 27 26 26 26 26 26 25 25 24 24 23 23 23 23 24 25 26 27
38 39 41 42 43 44 43 43 42 42 40 40 38 36 35 33 33 32 32 31 30 30 29 29 29 29 28 28 27 27 26 26 26 25 25 24 25 25 25 26 27 27
38 39 41 42 43 44 44 43 43 43 42 41 40 38 37 35 34 34 33 32 32 33 32 32 31 31 31 30 30 29 27 27 26 25 25 25 26 26 27 28 28 27
40 39 41 43 43 44 45 44 44 44 43 42 41 40 39 37 36 36 35 35 35 35 34 33 32 32 32 32 32 31 30 29 27 26 25 26 27 28 29 28 28 28
42 41 41 42 43 44 44 45 45 45 45 43 42 41 41 39 38 38 37 37 37 36 35 34 33 32 33 33 33 34 33 31 29 27 26 26 28 30 30 29 29 29
45 42 41 42 43 44 45 45 46 46 46 45 44 43 42 42 40 39 39 39 38 38 37 35 34 33 34 34 35 35 36 34 32 30 28 28 29 30 30 30 29 29
47 43 41 41 42 44 45 46 47 47 47 46 45 45 44 43 42 41 40 40 39 39 38 37 36 35 35 36 36 36 37 36 34 32 30 30 30 30 30 30 29 28
49 46 43 42 43 45 47 48 48 48 48 48 47 46 45 45 44 43 42 41 40 40 39 39 38 38 38 37 37 37 38 37 35 33 32 33 33 31 30 31 30 28
50 48 46 45 45 46 47 49 49 49 49 49 48 47 46 46 45 45 43 42 41 41 40 41 40 40 39 38 38 38 38 36 34 33 33 35 36 34 31 30 30 29
51 50 49 48 47 47 48 49 50 50 50 51 50 48 47 46 46 45 44 43 42 41 41 41 41 40 39 38 38 38 37 35 33 33 33 34 37 37 33 30 30 31
52 52 51 50 49 48 48 49 50 51 51 51 51 49 48 46 46 45 44 43 41 40 40 40 39 38 37 37 37 36 35 33 32 33 34 33 36 39 35 31 31 32
52 53 52 51 50 49 49 50 51 52 52 52 51 49 47 46 45 44 43 42 41 40 40 38 36 35 35 35 35 34 32 30 31 34 34 33 36 39 36 33 33 32
52 53 53 51 50 50 50 51 52 52 52 51 50 48 47 46 45 43 42 41 40 39 38 36 35 34 34 33 32 31 28 28 30 31 31 33 37 38 36 34 33 32
53 53 52 51 50 50 51 51 52 52 51 50 49 48 47 45 43 42 41 40 39 38 37 35 34 34 33 31 30 27 24 25 28 29 31 35 38 37 35 34 33 31
54 53 52 51 50 50 50 50 51 51 50 49 48 46 45 44 41 40 39 39 38 37 35 35 35 34 32 29 26 23 21 24 27 30 32 35 36 36 35 34 31 28
54 53 52 51 50 50 50 50 49 49 49 48 46 46 45 43 40 39 39 38 37 36 35 35 34 32 30 26 23 21 20 22 25 28 31 33 34 35 35 33 29 25
54 53 52 50 50 50 49 49 48 47 47 46 45 45 43 41 39 39 39 37 36 35 34 33 32 30 28 26 23 21 20 21 23 26 29 33 35 35 34 30 26 26
55 53 52 51 50 50 49 48 47 46 45 44 43 43 41 39 39 39 38 37 35 34 32 31 30 29 27 25 22 20 20 21 24 26 28 30 33 34 32 28 25 27
56 54 53 52 51 50 49 48 46 45 44 44 44 43 40 39 39 38 37 36 34 33 31 30 28 26 24 22 20 20 21 22 24 25 26 27 30 33 32 27 25 25
Wind_Direction
227 225 223 222 221 221 221 221 221 224 227 227 228 231 234 235 233 231 231 229 225 228 234 232 224 216 213 217 220 217 216 220 224 226 220 212 213 214 210 200 193 193
227 225 224 223 221 222 222 223 224 227 229 229 231 233 235 236 233 233 234 231 226 225 230 232 226 219 217 220 222 219 218 221 224 225 220 213 212 214 213 207 201 198
227 225 225 223 222 222 222 224 225 228 230 231 231 233 233 233 232 232 233 232 229 226 228 231 226 219 218 220 223 223 223 225 227 226 223 216 214 215 215 213 209 205
227 226 225 224 223 222 222 224 226 228 229 231 232 233 232 230 230 231 231 231 229 227 228 231 227 221 218 219 222 225 226 228 229 229 227 221 217 218 216 214 214 210
229 227 226 225 224 223 223 224 227 228 228 230 231 232 231 229 229 230 230 229 228 228 228 231 230 225 220 219 221 224 225 227 229 229 230 226 221 221 217 215 215 214
229 228 227 226 225 223 223 224 227 229 229 230 230 230 230 229 230 230 229 229 229 229 229 231 232 228 223 220 221 223 224 226 228 229 230 230 227 226 222 218 218 218
228 229 228 227 226 224 223 224 227 229 230 231 231 230 229 229 230 230 229 230 231 232 232 233 234 230 226 222 222 224 224 226 229 230 230 231 231 230 228 224 222 222
228 229 228 228 227 226 224 224 226 228 229 231 231 231 230 230 231 231 231 231 232 234 235 235 236 234 229 226 225 225 225 226 228 230 231 232 233 234 232 229 226 226
226 228 228 229 228 227 225 224 226 228 229 230 232 232 232 232 232 232 232 233 234 235 236 236 237 236 233 231 230 228 227 227 229 231 234 235 236 238 236 233 230 228
224 227 228 228 228 227 226 224 225 227 228 230 232 232 233 233 233 233 233 234 236 236 237 237 237 237 237 236 236 234 232 231 232 234 237 238 242 243 239 236 234 232
223 225 227 228 228 227 226 225 225 226 228 230 232 233 233 233 233 233 233 234 236 238 238 239 239 240 240 241 241 241 238 236 236 239 241 243 245 245 241 239 238 237
222 224 226 228 228 227 226 225 225 226 228 230 231 232 233 233 234 234 234 235 237 239 240 241 242 243 245 245 246 245 243 240 240 242 245 247 247 244 243 242 241 240
221 223 226 227 227 227 226 225 225 226 228 230 231 232 233 234 234 235 236 237 238 240 242 243 244 245 247 248 248 247 246 244 243 245 248 249 248 245 245 244 242 240
222 224 226 227 227 227 226 226 226 226 228 230 231 232 233 235 236 236 237 238 239 241 243 245 245 246 247 248 248 249 249 248 247 249 250 250 250 247 245 245 242 240
223 224 225 226 227 228 227 227 227 227 228 230 231 233 234 235 236 237 237 238 240 241 243 244 246 247 248 249 251 251 251 251 251 252 254 253 252 248 245 244 243 241
222 224 225 226 226 227 228 227 227 228 228 229 231 233 234 234 235 235 237 239 240 242 243 244 246 249 251 253 255 255 253 253 255 257 258 257 254 248 244 243 243 243
222 223 224 225 226 227 228 228 228 228 228 229 231 232 234 234 233 234 236 238 240 243 245 247 249 251 254 256 256 255 254 255 258 260 258 257 255 249 244 244 245 244
222 223 223 225 226 227 227 228 228 228 228 229 230 231 233 233 233 234 236 238 240 243 246 249 252 254 256 257 255 254 255 258 260 259 256 255 256 251 246 246 246 242
223 222 223 225 226 227 227 227 227 228 228 229 229 230 231 232 233 235 237 239 241 244 247 250 253 255 256 256 255 255 257 258 258 258 256 254 255 253 248 246 245 241
223 223 224 225 227 227 226 226 227 228 228 228 228 228 229 231 234 235 238 240 243 245 248 250 252 255 255 256 256 256 257 256 256 257 257 254 254 254 250 247 245 241
224 224 225 226 226 225 225 226 227 227 227 227 227 228 229 232 234 236 238 240 242 245 247 249 252 254 254 255 255 253 253 252 251 254 254 251 251 252 251 248 244 239
224 224 225 225 224 224 224 225 226 226 226 226 227 228 231 233 235 237 238 239 241 243 245 247 250 251 252 253 252 249 247 247 248 250 251 251 251 251 249 246 241 238
224 224 224 224 223 224 224 225 225 226 226 226 228 229 231 233 234 235 237 238 239 240 242 244 246 248 249 248 246 245 243 243 246 248 249 250 249 247 245 241 237 238
224 224 224 223 223 223 224 224 224 225 226 228 229 231 232 232 232 233 235 236 237 238 240 241 242 243 243 242 243 243 241 241 242 243 245 246 244 242 238 233 233 237
223 224 224 223 223 224 224 223 223 225 226 228 229 231 231 231 230 231 232 233 234 235 236 236 237 238 239 240 241 237 234 236 236 236 239 241 241 238 229 223 231 236
221 223 223 223 223 223 222 222 223 224 225 226 226 227 228 229 228 228 227 228 228 229 230 231 233 235 237 237 233 226 226 231 234 234 235 237 238 234 224 218 227 231
Height
1520 1522 1523 1525 1527 1529 1531 1533 1534 1536 1537 1538 1539 1540 1541 1542 1544 1545 1546 1548 1549 1550 1550 1551 1552 1553 1554 1555 1556 1557 1558 1559 1560 1560 1560 1561 1561 1561 1562 1563 1564 1564
1517 1519 1520 1522 1524 1526 1528 1530 1532 1533 1534 1535 1536 1538 1539 1541 1542 1543 1544 1546 1547 1548 1549 1550 1550 1551 1552 1553 1554 1555 1556 1557 1558 1559 1559 1559 1559 1560 1561 1562 1563 1563
1514 1515 1517 1518 1520 1523 1525 1528 1530 1531 1532 1533 1534 1536 1537 1538 1540 1541 1542 1543 1545 1546 1547 1548 1549 1550 1551 1551 1552 1553 1554 1555 1556 1557 1558 1558 1558 1559 1559 1560 1561 1562
1510 1512 1513 1515 1517 1520 1523 1525 1526 1527 1529 1530 1531 1533 1535 1536 1537 1538 1540 1541 1542 1544 1545 1546 1547 1548 1549 1550 1551 1552 1552 1554 1555 1556 1556 1556 1557 1558 1558 1559 1559 1560
1506 1508 1510 1512 1514 1517 1520 1521 1522 1524 1525 1527 1529 1531 1532 1533 1535 1536 1537 1538 1539 1541 1542 1544 1545 1546 1547 1548 1549 1550 1550 1551 1552 1553 1554 1554 1555 1556 1557 1557 1557 1558
1502 1505 1507 1509 1511 1514 1516 1517 1519 1521 1522 1524 1526 1528 1529 1530 1532 1533 1534 1535 1537 1538 1540 1541 1542 1543 1545 1546 1547 1547 1548 1549 1550 1551 1551 1552 1553 1554 1555 1555 1555 1555
1498 1501 1503 1506 1508 1510 1512 1514 1516 1518 1519 1521 1523 1524 1526 1527 1529 1530 1531 1533 1534 1535 1537 1538 1539 1541 1542 1543 1544 1545 1546 1547 1548 1548 1549 1550 1551 1551 1552 1552 1552 1553
1493 1497 1499 1502 1504 1506 1508 1510 1512 1514 1516 1518 1519 1521 1523 1524 1525 1527 1528 1530 1531 1532 1534 1535 1536 1538 1539 1540 1541 1542 1543 1544 1545 1545 1546 1547 1547 1548 1548 1549 1550 1550
1489 1492 1495 1498 1500 1502 1504 1506 1508 1511 1513 1514 1516 1518 1519 1521 1522 1524 1525 1527 1528 1529 1530 1532 1533 1534 1536 1537 1538 1539 1540 1541 1542 1542 1543 1544 1544 1544 1545 1546 1547 1548
1485 1488 1491 1493 1495 1497 1499 1502 1505 1507 1509 1511 1512 1514 1516 1517 1520 1521 1522 1524 1524 1525 1527 1528 1529 1531 1532 1533 1534 1536 1537 1538 1539 1540 1540 1541 1541 1541 1542 1544 1545 1546
1480 1483 1486 1488 1491 1493 1495 1498 1501 1503 1505 1507 1508 1510 1512 1514 1516 1518 1519 1519 1520 1521 1523 1525 1526 1527 1528 1529 1531 1532 1534 1536 1537 1538 1538 1539 1539 1539 1541 1542 1543 1544
1476 1478 1481 1483 1486 1488 1490 1493 1496 1499 1500 1502 1504 1505 1508 1510 1512 1513 1514 1515 1516 1518 1520 1521 1523 1524 1525 1526 1527 1529 1530 1533 1535 1536 1536 1537 1537 1538 1539 1540 1541 1542
1471 1473 1475 1478 1481 1483 1486 1489 1491 1494 1496 1498 1500 1501 1503 1505 1507 1508 1509 1511 1513 1515 1516 1518 1520 1521 1522 1523 1525 1526 1527 1529 1531 1533 1534 1534 1535 1536 1537 1537 1538 1539
1465 1468 1470 1473 1476 1479 1482 1484 1486 1489 1491 1493 1496 1497 1499 1500 1502 1504 1506 1508 1510 1511 1513 1515 1516 1518 1519 1520 1521 1522 1523 1524 1526 1529 1530 1531 1532 1533 1534 1535 1536 1537
1460 1463 1466 1469 1472 1474 1477 1479 1481 1484 1486 1489 1491 1493 1494 1496 1498 1500 1502 1504 1507 1509 1510 1512 1513 1513 1515 1516 1518 1518 1519 1520 1523 1525 1527 1528 1528 1530 1531 1532 1533 1534
1456 1458 1461 1464 1466 1469 1471 1474 1476 1479 1482 1484 1486 1488 1490 1492 1494 1497 1499 1501 1503 1505 1507 1508 1509 1510 1511 1513 1514 1514 1516 1519 1521 1523 1524 1525 1525 1526 1528 1529 1530 1531
1451 1453 1456 1458 1460 1463 1466 1469 1472 1475 1477 1479 1481 1484 1486 1488 1491 1494 1496 1498 1500 1502 1503 1504 1505 1506 1508 1509 1510 1512 1514 1517 1518 1519 1520 1521 1521 1522 1524 1525 1526 1528
1446 1449 1451 1453 1455 1458 1461 1464 1467 1470 1473 1475 1477 1480 1483 1485 1488 1490 1492 1495 1497 1499 1500 1500 1501 1503 1504 1506 1508 1510 1512 1514 1515 1515 1515 1517 1517 1518 1520 1522 1523 1525
1442 1444 1446 1448 1450 1453 1456 1459 1463 1466 1468 1470 1474 1477 1480 1482 1484 1487 1489 1492 1494 1495 1496 1497 1498 1500 1501 1503 1505 1507 1509 1511 1511 1511 1512 1514 1514 1514 1517 1519 1521 1522
1437 1439 1441 1443 1446 1449 1453 1456 1459 1461 1464 1468 1471 1475 1477 1479 1482 1484 1487 1488 1490 1491 1492 1494 1496 1497 1499 1501 1503 1504 1506 1507 1507 1508 1509 1511 1510 1511 1514 1516 1518 1520
1433 1434 1437 1439 1443 1446 1449 1452 1455 1458 1462 1465 1469 1472 1474 1477 1480 1482 1484 1485 1487 1488 1490 1492 1493 1494 1496 1498 1500 1502 1504 1504 1504 1505 1505 1506 1507 1509 1511 1513 1515 1517
1428 1431 1433 1436 1440 1443 1446 1449 1452 1455 1459 1463 1466 1469 1472 1475 1477 1479 1480 1482 1484 1486 1488 1489 1490 1491 1494 1496 1498 1499 1501 1501 1501 1501 1502 1503 1504 1506 1507 1509 1511 1515
1424 1427 1430 1433 1437 1440 1443 1446 1449 1453 1457 1460 1464 1466 1468 1471 1473 1475 1476 1478 1481 1483 1485 1486 1487 1489 1491 1493 1495 1496 1497 1497 1498 1498 1499 1499 1500 1502 1504 1506 1509 1512
1421 1424 1427 1431 1434 1437 1439 1443 1447 1451 1454 1457 1460 1462 1464 1467 1469 1471 1473 1475 1478 1480 1481 1482 1484 1486 1488 1490 1491 1492 1492 1493 1494 1494 1495 1496 1497 1499 1501 1505 1508 1509
1418 1422 1425 1428 1431 1434 1437 1441 1445 1448 1452 1454 1457 1459 1461 1464 1466 1468 1470 1472 1475 1476 1478 1480 1482 1483 1485 1486 1487 1488 1488 1489 1490 1491 1491 1493 1495 1496 1499 1502 1506 1507
1416 1419 1422 1425 1428 1431 1435 1439 1443 1446 1449 1451 1454 1456 1459 1462 1463 1466 1468 1470 1472 1474 1475 1477 1479 1480 1481 1483 1484 1485 1486 1487 1487 1488 1489 1491 1492 1493 1496 1500 1503 1505